Погода Казалы

Погода Казалы : погода сейчас, прогноз погоды и архив. Всё, что Вы хотите узнать о погоде Казалы!

Хотите узнать прогноз погоды Казалы? Тогда Вам сюда: Погода Казалы

Поиск расширенной информации на нашем сайте:

Другие новости

Новости СМИ2

Главная страница сайта

Новости сайта

03.07.2017

Напоминаем, что на нашем специализированном сайте Метеоцентр.Азия вы можете получить высокодетализированные автоматические прогнозы погоды по пунктам России, СНГ и мира в авиационном формате (включающие направление и скорость ветра, видимость, явления погоды, количество и форму облачности, нижнюю и верхнюю границу облачности).


Погода Казалы - сегодня

Время (UTC), дата Ветер
(°,м/с) 
Видим.   Явления Облачность Т
(°С)
Тd
(°С)
f(%) Тe
(°С)
Pmin
(гПа)
dP
(гПа)
Po
(мм)
O2
(г/м3)
Тmin Tmax R s Состояние
почвы
03 22.11.17 090 (В) 20000 м    6/0 средняя, верхняя 
[Ac trans|Ci fib]
-0.1 -4.9 70 -3  1018.2  -0.1  757  306           
06 22.11.17 110 (В) 20000 м    6/0 средняя, верхняя 
[Ac trans|Ci fib]
+2.5 -5.3 56 1018.1  757  303  -0.1         
09 22.11.17 110 (В) 20000 м    8/0 средняя, верхняя 
[Ac trans|Ci fib]
+9.6 -4.7 36 +8  1016.5  -1.4  756  295           
12 22.11.17 110 (В) 20000 м    3/0 верхняя 
[Ci fib]
+7.9 -4.7 40 +7  1015  -1.5  755  296           
15 22.11.17 090 (В) 20000 м    ясно 
+4 -4.7 53 +5  1014  -1.2  754  300    +9.9       
18 22.11.17 090 (В) 20000 м    ясно 
+2.4 -5 58 +2  1013.1  -0.8  754  302    +9.9       
21 22.11.17 090 (В) 20000 м    ясно 
+1.2 -5.5 61 +1  1012.1  -1.1  753  303           
00 23.11.17 090 (В) 20000 м    3/0 верхняя 
[Ci fib]
+1.4 -5.2 61 +1  1010.9  -1.2  752  302           
03 23.11.17 110 (В) 20000 м    5/0 верхняя 
[Ci fib]
+1.7 -5.2 60 +1  1011  0.1  752  302           
06 23.11.17 110 (В) 20000 м    10/0 средняя 
[Ac trans]
+4.1 -4.6 53 +3  1011.4  0.5  752  299  +1.2         
09 23.11.17 110 (В) 20000 м    10/0 средняя 
[Ac As]
+8.7 -3 44 +8  1010.1  -1.1  751  294           
12 23.11.17 110 (В) 20000 м    8/0 средняя 
[Ac trans]
+9.2 -4.7 37 +9  1010.4  0.3  752  293           
15 23.11.17 тихо ()   20000 м    3/0 средняя 
[Ac trans]
+5.1 -3.2 55 +5  1011.2  0.6  752  298    +9.9       
18 23.11.17 тихо ()   20000 м    9/0 средняя 
[Ac As]
+4.4 -2.3 62 +4  1011.2  752  299    +9.9       
21 23.11.17 тихо ()   20000 м    9/0 средняя 
[Ac As]
+4.2 -2.3 63 +4  1011  -0.2  752  299           
00 24.11.17 090 (В) 20000 м    8/0 средняя 
[Ac As]
+1.6 -3.5 69 +2  1011.5  0.4  752  302           
03 24.11.17 090 (В) 20000 м    8/0 средняя 
[Ac As]
+0.6 -3.4 75 +1  1012.6  1.1  753  303  +0.6         
06 24.11.17 090 (В) 20000 м    8/0 средняя, верхняя 
[As op|Cs]
+2.8 -2 71 +4  1014.1  1.5  754  301  +0.6         
09 24.11.17 290 (З) 20000 м    8/0 средняя 
[Ac As]
+6.8 -0.5 60 +6  1014.8  0.7  755  297           
12 24.11.17 290 (З) 20000 м    10/10 600 м кучево-дожд. 
[Cb calv]
+7 -0 61 +7  1016.1  1.5  756  297           
15 24.11.17 320 (СЗ) 20000 м  {ливн. осадки}  10/10 600 м кучево-дожд. 
[Cb calv]
+4.6 +2.4 86 +4  1016.4  0.1  756  299    +7  0.3     
18 24.11.17 290 (З) 20000 м    10/10 600 м кучево-дожд. 
[Cb calv]
+4.8 +2.8 87 +4  1017.8  1.4  757  299    +7  0.3     
21 24.11.17 320 (СЗ) 20000 м    10/10 600 м кучево-дожд. 
[Cb calv]
+4 +2 87 +4  1017.5  -0.3  757  300           
00 25.11.17 320 (СЗ) 20000 м    10/10 600 м кучево-дожд. 
[Cb calv]
+3.4 +1.6 88 +4  1017.9  0.4  757  301           
03 25.11.17 тихо ()   20000 м    10/10 600 м 
[Sc]
+3.6 +1 83 +4  1017.9  757  301           
Время (UTC), дата Ветер
(°,м/с) 
Видим.   Явления Облачность Т
(°С)
Тd
(°С)
f(%) Тe
(°С)
Pmin
(гПа)
dP
(гПа)
Po
(мм)
O2
(г/м3)
Тmin Tmax R s Состояние
почвы

Для получения пояснительной информации подведите курсор к названию столбца.

ПОГОДА Казалы - архив

Всё, что Вы хотите узнать о погоде Казалы - удобно и подробно!

Выберите нужную дату (начиная с 1 января 2015* года) и нажмите кнопку "Найти".
Будут отображены архивные сводки погоды по пункту Казалы, начиная с указанной даты.


Отображать данные в формате CSV (для использования в таблицах Excel)


Внимание! Наш архив погоды предназначен исключительно для личного некоммерческого использования в познавательных целях. Если Вам необходимы официальные справки о состоянии погоды (для производственных, юридических, коммерческих и т.п. целей), обращайтесь в органы Росгидромета.

*Примечание: данная дата относится к архиву по метеостанциям СССР (Россия, СНГ, Балтия).
Архив по метеостанциям Зарубежной Европы и Азии (кроме Китая) хранится 10 дней, по другим регионам земного шара (Китай, Африка, Америка, Австралия, Океания) - 1 день.

Казалы - район местоположения метеостанции


Название, широта, долгота, высота метеостанции:
Казалы (Казалинск) 45.8°ш. 62.1°д. 68 м над ур. моря [Казахстан]

Дополнительная информация

В oтличие oт бoльшинства пoгoдных сайтoв мы публикуем пoдрoбную метеoинфoрмацию в детальнoм прoфессиoнальнoм фoрмате.

Характеристики температуры и влажнoсти вoздуха измеряются на высoте 2 м в тени вдали oт зданий и деревьев.
Скoрoсть ветра измеряется на высoте 10 м (на урoвне рoста челoвека скoрoсть ветра ниже в 1.5-2 раза). Если метеoстанция нахoдится в гoрoде или в лесу, тo скoрoсть ветра занижена на 2-4 м/с пo сравнению с oткрытым местoм. Скoрoсть ветра над акватoриями крупных рек и oзёр, а также на вершинах хoлмoв на 2-5 м/с выше, чем в oбычных услoвиях.
Атмoсфернoе давление в разных тoчках местнoсти мoжет значительнo oтличаться oт давления на метеoстанции, в зависимoсти oт услoвий рельефа (при пoдъёме на 10 м давление пoнижается примернo на 1 мм рт.ст.).